全球卫星定位系统 GPS 73星 (NAVSTAR 73 (USA 260))

导读

NAVSTAR 73(USA 260)是美国于2015年3月25日发射的GPS导航卫星,NAVSTAR是全球定位系统GPS的官方命名,这类卫星是美国全球导航系统的核心组成部分。该卫星运行在中地球轨道,为全球用户提供精准的定位、导航与授时服务,支撑民生应用与军事行动,目前仍承担着GPS星座的组网服务,保障全球任意位置都能获取稳定可靠的位置信息,是美国空天导航体系的重要节点。

基本信息
目录编号:
40534
目录名称:
NAVSTAR 73 (USA 260)
国际标识:
2015-013A
轨道中心:
EARTH
卫星名称:
GPS 73星
卫星全名:
全球卫星定位系统 GPS 73星 (NAVSTAR 73 (USA 260))
卫星状态:
在轨 (已飞行4188 天)
发射日期:
2015-03-25 UTC
国别 :
美国 (US)
星等 :
--
轨道信息
数据来源 国际轨道数据 AOE轨道数据
星历时间 2026-09-11T03:36:01+0800
5小时前
查看轨道信息
2026-09-06T21:00:00+0800
4天前
查看轨道信息
半长轴 26559.687km 26559.642km
偏心率 0.011277 0.0112581
轨道倾角 53.157° 53.159°
近地点辐角 41.054° 40.953°
升交点赤经 200.639° 200.816°
平近点角 319.753° 112.935°
近地点 19882.036km 19882.493km
远地点 20481.064km 20480.517km
周期 717.950分钟 717.948分钟
每日圈数 2.005711 2.005716
详细信息
平衡模式:
三轴稳定
覆盖范围:
全球
运营商:
美国太空军
运营商所在国:
美国
制造商(研发单位):
波音公司
制造商所在国:
美国
使用方式:
暂无
工作目标:
提供军用及民用全球定位与导航服务。
预期寿命:
12年
卫星简介
全球定位系统(英语:Global Positioning System,通常简称GPS),又称全球卫星定位系统,是美国国防部研制,美国太空军运营与维护的中地球轨道卫星导航系统。它可以为地球表面约98%的地区提供准确的定位、测速和高精度的标准时间。全球定位系统可满足位于全球地面任何一处或近地空间的军事用户连续且精确地确定三维位置、三维运动和时间的需求。该系统包括太空中的31颗GPS人造卫星.该卫星仍在工作。
2D轨道图
3D轨道图
轨道高度分析图
轨道倾角分析图
轨道综合分析图
查看轨道综合分析图
与全量物体交会距离演化趋势
与全量物体交会风险概率演化趋势